Miscellaneous Local Product
Issued by NWS North Platte, NE

Home | Current Version | Previous Version | Text Only | Print | Product List | Glossary On
Versions: 1 2 3 4 5 6 7 8 9 10 11 12 13 14 15 16 17 18 19 20 21 22 23 24 25 26 27 28 29 30 31 32 33 34 35 36 37 38 39 40 41 42 43 44 45 46 47 48 49 50
000
AXUS43 KLBF 261910
MISLBF


WESTERN AND NORTH CENTRAL NEBRASKA HOURLY WEATHER ROUNDUP
NATIONAL WEATHER SERVICE NORTH PLATTE NE
200 PM CDT WED JUL 26 2017

NOTE: "FAIR" INDICATES FEW OR NO CLOUDS BELOW 12,000 FEET WITH NO
SIGNIFICANT WEATHER AND/OR OBSTRUCTIONS TO VISIBILITY.

NOTE: STATIONS NOT REPORTING VARIABLES SUCH AS SKY/WEATHER OR
PRESSURE ARE PROVIDED BY RAWS AND APRS NETWORKS AND ARE NOT UNDER
NATIONAL WEATHER SERVICE QUALITY CONTROL.

...OBSERVATIONS IN AND NEAR THE EASTERN PANHANDLE OF NEBRASKA...

CITY           SKY/WX    TMP DP  RH WIND       PRES   REMARKS
PINE RIDGE     CLOUDY    82  58  43 NE14      30.17R
GORDON         FAIR      80  60  51 NE15      30.17S
CHADRON        CLOUDY    82  54  37 NE9       30.16S
ALLIANCE       CLOUDY    76  61  59 NE14      30.18S
SIDNEY         CLOUDY    79  59  50 N17       30.20R
CRESCENT LAKE    N/A     77  63  61 N13G20      N/A
$$

...OBSERVATIONS IN NORTHERN NEBRASKA AND FAR SOUTHERN SOUTH DAKOTA...

CITY           SKY/WX    TMP DP  RH WIND       PRES   REMARKS
WINNER         PTSUNNY   88  63  43 E15G24    30.08R
VALENTINE      PTSUNNY   84  62  47 NE18G26   30.10S
THEDFORD       CLOUDY    79  68  69 N8        30.10F
AINSWORTH      CLOUDY    79  69  72 NE13      30.10R
O`NEILL        CLOUDY    78  71  80 NE6       30.06S
ORD            CLOUDY    76  68  76 N9        30.04S
BROKEN BOW     CLOUDY    76  67  73 NE16      30.07R
VALENTINE NWR    N/A     77  68  73 NE9         N/A
HALSEY           N/A     75  67  77 N6          N/A
BUTTE            N/A     77  69  76 NE10        N/A
CHAMBERS         N/A     79  69  70 NE3         N/A
EWING            N/A     77  72  84 CALM        N/A
$$

...OBSERVATIONS IN SOUTHWEST NEBRASKA AND FAR NORTHEAST COLORADO...

CITY           SKY/WX    TMP DP  RH WIND       PRES   REMARKS
HOLYOKE        FAIR      86  63  45 N13G21    30.13F
IMPERIAL       CLOUDY    79  64  60 N14       30.11R
OGALLALA       PTSUNNY   84  63  49 NE13      30.11S
NORTH PLATTE   CLOUDY    80  67  64 E12       30.08S
MCCOOK         CLOUDY    78  69  73 N15       30.04R
LEXINGTON      CLOUDY    72  69  90 NE16      30.05S
STAPLETON        N/A     75  67  77 CALM        N/A
GOTHENBURG       N/A     71  66  84 NE6         N/A
CALLAWAY         N/A     76  71  85 E8          N/A
$$

...OBSERVATIONS IN CENTRAL LINCOLN COUNTY AREA...

CITY           SKY/WX    TMP DP  RH WIND       PRES   REMARKS
N.P. AIRPORT   CLOUDY    80  67  64 E12       30.08S
N.P. DOWNTOWN    N/A     78  68  72 E8G15       N/A
N.P. SOUTHEAST   N/A     78  67  69 NE3G12      N/A
N.P. HILLCREST   N/A     76  67  73 E14G21      N/A
$$

...SOME OBSERVATIONS FROM AROUND THE REGION...

CITY           SKY/WX    TMP DP  RH WIND       PRES   REMARKS
DENVER         PTSUNNY   79  58  48 W5        30.25F
LIMON          SUNNY     79  62  56 N13       30.24S
ASPEN          CLOUDY    71  55  56 NW7       30.41S
LARAMIE        CLOUDY    69  53  56 N6        30.36S
CASPER         CLOUDY    70  58  65 VRB6      30.27F
CHEYENNE       CLOUDY    68  58  70 NE12G21   30.32S
SCOTTSBLUFF    CLOUDY    81  58  45 NE14      30.20R
GRAND ISLAND   CLOUDY    75  73  93 NE14      30.02R
OMAHA          TSTM      75  71  87 N5        29.99S
SIOUX FALLS    MOSUNNY   83  68  60 NE14      30.04R
PIERRE         SUNNY     87  52  29 NE13      30.08F
RAPID CITY     PTSUNNY   80  49  33 VRB5      30.20S
BISMARCK       SUNNY     85  53  33 VRB7      30.12F
KANSAS CITY    CLOUDY    81  76  84 SE14      29.99F
HILL CITY      SUNNY     93  69  45 N10       29.95R HX  98
WICHITA        CLOUDY    96  70  42 S16       29.94S HX 102
DODGE CITY     CLOUDY    88  66  48 W8        30.01R HX  90
OKLAHOMA CITY  PTSUNNY   99  68  36 S16       30.00F HX 104
DALLAS         MOSUNNY   95  72  47 SW14G20   30.03F HX 103
AMARILLO       SUNNY     98  58  26 S16G24    30.08F HX  97
$$




USA.gov is the U.S. government's official web portal to all federal, state and local government web resources and services.